When you browse on this site, cookies collect data to enhance your experience and personalize the content and advertising you see.
Visit our Privacy Policy to learn more. By continuing to use the site, you agree to this use of cookies and data.
  • In Schweiz
  • Länderverzeichnis
  • Für 7 Tage
  • Wassertemperatur
  • Satellitenkarten
  • Wetterkarte
  • Widgets
  • user-avatar
    Anmelden

    Stündliche Wetter Plavynyshche

    Heute, 19 April, Freitag

    Zeit Temperatur Niederschläge Wind Luftdruck Luftfeuchtigkeit
    00:00 +7°C° 0.1 mm 2 m/S 756 mmHg 65%
    01:00 +7°C° 0.1 mm 2 m/S 756 mmHg 66%
    02:00 +7°C° 0 mm 1 m/S 756 mmHg 65%
    03:00 +6°C° 0 mm 1 m/S 756 mmHg 65%
    04:00 +6°C° 0 mm 1 m/S 756 mmHg 66%
    05:00 +5°C° 0 mm 2 m/S 756 mmHg 66%
    06:00 +6°C° 0 mm 2 m/S 757 mmHg 61%
    07:00 +8°C° 0 mm 2 m/S 757 mmHg 56%
    08:00 +9°C° 0 mm 2 m/S 757 mmHg 51%
    09:00 +10°C° 0 mm 3 m/S 757 mmHg 48%
    10:00 +10°C° 0 mm 3 m/S 758 mmHg 45%
    11:00 +11°C° 0 mm 4 m/S 758 mmHg 41%
    12:00 +11°C° 0 mm 4 m/S 758 mmHg 42%
    13:00 +11°C° 0 mm 4 m/S 758 mmHg 42%
    14:00 +11°C° 0 mm 4 m/S 758 mmHg 42%
    15:00 +11°C° 0 mm 3 m/S 758 mmHg 43%
    16:00 +11°C° 0 mm 3 m/S 758 mmHg 44%
    17:00 +11°C° 0 mm 3 m/S 758 mmHg 44%
    18:00 +10°C° 0 mm 2 m/S 759 mmHg 48%
    19:00 +9°C° 0 mm 2 m/S 759 mmHg 53%
    20:00 +8°C° 0 mm 1 m/S 759 mmHg 57%
    21:00 +8°C° 0 mm 1 m/S 759 mmHg 58%
    22:00 +7°C° 0 mm 1 m/S 759 mmHg 59%
    23:00 +7°C° 0 mm 1 m/S 759 mmHg 60%

    Morgen, 20 April, Samstag

    Zeit Temperatur Niederschläge Wind Luftdruck Luftfeuchtigkeit
    00:00 +7°C° 0 mm 1 m/S 759 mmHg 61%
    01:00 +6°C° 0 mm 1 m/S 759 mmHg 62%
    02:00 +6°C° 0 mm 1 m/S 759 mmHg 63%
    03:00 +6°C° 0 mm 1 m/S 759 mmHg 64%
    04:00 +5°C° 0 mm 1 m/S 759 mmHg 65%
    05:00 +5°C° 0 mm 1 m/S 759 mmHg 65%
    06:00 +7°C° 0 mm 1 m/S 759 mmHg 60%
    07:00 +8°C° 0 mm 1 m/S 759 mmHg 56%
    08:00 +10°C° 0 mm 1 m/S 759 mmHg 51%
    09:00 +11°C° 0 mm 1 m/S 759 mmHg 46%
    10:00 +12°C° 0 mm 1 m/S 759 mmHg 41%
    11:00 +13°C° 0 mm 2 m/S 758 mmHg 36%
    12:00 +13°C° 0 mm 1 m/S 758 mmHg 36%
    13:00 +13°C° 0 mm 1 m/S 758 mmHg 37%
    14:00 +13°C° 0 mm 1 m/S 758 mmHg 37%
    15:00 +13°C° 0 mm 1 m/S 757 mmHg 39%
    16:00 +13°C° 0 mm 1 m/S 757 mmHg 41%
    17:00 +13°C° 0 mm 1 m/S 757 mmHg 43%
    18:00 +11°C° 0 mm 0 m/S 757 mmHg 46%
    19:00 +10°C° 0 mm 0 m/S 757 mmHg 48%
    20:00 +10°C° 0 mm 0 m/S 757 mmHg 50%
    21:00 +9°C° 0 mm 0 m/S 757 mmHg 51%
    22:00 +9°C° 0 mm 0 m/S 757 mmHg 51%
    23:00 +9°C° 0 mm 0 m/S 757 mmHg 52%

    übermorgen, 21 April, Sonntag

    Zeit Temperatur Niederschläge Wind Luftdruck Luftfeuchtigkeit
    00:00 +10°C° 0 mm 1 m/S 757 mmHg 53%
    01:00 +9°C° 0 mm 1 m/S 757 mmHg 54%
    02:00 +9°C° 0 mm 1 m/S 757 mmHg 55%
    03:00 +8°C° 0 mm 1 m/S 757 mmHg 57%
    04:00 +8°C° 0 mm 1 m/S 757 mmHg 59%
    05:00 +7°C° 0 mm 1 m/S 757 mmHg 61%
    06:00 +8°C° 0 mm 2 m/S 757 mmHg 58%
    07:00 +9°C° 0 mm 2 m/S 757 mmHg 55%
    08:00 +12°C° 0 mm 2 m/S 757 mmHg 52%
    09:00 +11°C° 0 mm 3 m/S 757 mmHg 48%
    10:00 +12°C° 0 mm 3 m/S 757 mmHg 45%
    11:00 +12°C° 0 mm 3 m/S 758 mmHg 41%
    12:00 +12°C° 0 mm 3 m/S 758 mmHg 41%
    13:00 +12°C° 0 mm 3 m/S 758 mmHg 40%
    14:00 +13°C° 0 mm 3 m/S 758 mmHg 40%
    15:00 +13°C° 0 mm 2 m/S 758 mmHg 41%
    16:00 +13°C° 0 mm 2 m/S 758 mmHg 43%
    17:00 +13°C° 0 mm 2 m/S 758 mmHg 44%
    18:00 +12°C° 0 mm 2 m/S 758 mmHg 47%
    19:00 +12°C° 0 mm 2 m/S 758 mmHg 51%
    20:00 +10°C° 0 mm 2 m/S 758 mmHg 54%
    21:00 +9°C° 0 mm 2 m/S 758 mmHg 55%
    22:00 +9°C° 0 mm 2 m/S 759 mmHg 57%
    23:00 +8°C° 0 mm 2 m/S 759 mmHg 58%

    22 April, Montag

    Zeit Temperatur Niederschläge Wind Luftdruck Luftfeuchtigkeit
    00:00 +8°C° 0 mm 2 m/S 759 mmHg 58%
    01:00 +8°C° 0 mm 2 m/S 759 mmHg 58%
    02:00 +8°C° 0 mm 2 m/S 759 mmHg 59%
    03:00 +8°C° 0 mm 2 m/S 759 mmHg 59%
    04:00 +7°C° 0 mm 2 m/S 759 mmHg 60%
    05:00 +7°C° 0 mm 2 m/S 760 mmHg 61%
    06:00 +9°C° 0 mm 2 m/S 760 mmHg 59%
    07:00 +10°C° 0 mm 2 m/S 760 mmHg 57%
    08:00 +12°C° 0 mm 2 m/S 760 mmHg 54%
    09:00 +12°C° 0 mm 3 m/S 761 mmHg 50%
    10:00 +12°C° 0 mm 3 m/S 761 mmHg 45%
    11:00 +13°C° 0 mm 3 m/S 761 mmHg 40%
    12:00 +13°C° 0 mm 3 m/S 761 mmHg 40%
    13:00 +14°C° 0 mm 2 m/S 760 mmHg 41%
    14:00 +14°C° 0 mm 2 m/S 760 mmHg 41%
    15:00 +14°C° 0 mm 2 m/S 760 mmHg 42%
    16:00 +14°C° 0 mm 2 m/S 760 mmHg 44%
    17:00 +14°C° 0 mm 2 m/S 760 mmHg 45%
    18:00 +13°C° 0 mm 2 m/S 760 mmHg 48%
    19:00 +11°C° 0 mm 1 m/S 760 mmHg 52%
    20:00 +10°C° 0 mm 1 m/S 761 mmHg 55%
    21:00 +10°C° 0 mm 1 m/S 761 mmHg 57%
    22:00 +10°C° 0 mm 1 m/S 761 mmHg 58%
    23:00 +9°C° 0 mm 1 m/S 761 mmHg 59%

    23 April, Dienstag

    Zeit Temperatur Niederschläge Wind Luftdruck Luftfeuchtigkeit
    00:00 +9°C° 0 mm 1 m/S 761 mmHg 60%
    01:00 +8°C° 0 mm 1 m/S 761 mmHg 62%
    02:00 +8°C° 0 mm 1 m/S 762 mmHg 63%
    03:00 +8°C° 0 mm 1 m/S 762 mmHg 63%
    04:00 +8°C° 0 mm 1 m/S 762 mmHg 64%
    05:00 +7°C° 0 mm 1 m/S 762 mmHg 65%
    06:00 +9°C° 0 mm 1 m/S 762 mmHg 61%
    07:00 +11°C° 0 mm 1 m/S 762 mmHg 58%
    08:00 +12°C° 0 mm 2 m/S 762 mmHg 54%
    09:00 +13°C° 0 mm 1 m/S 762 mmHg 49%
    10:00 +14°C° 0 mm 1 m/S 762 mmHg 44%
    11:00 +15°C° 0 mm 1 m/S 762 mmHg 39%
    12:00 +15°C° 0 mm 1 m/S 762 mmHg 40%
    13:00 +15°C° 0 mm 1 m/S 762 mmHg 40%
    14:00 +14°C° 0 mm 0 m/S 762 mmHg 41%
    15:00 +15°C° 0 mm 1 m/S 762 mmHg 42%
    16:00 +15°C° 0 mm 1 m/S 762 mmHg 44%
    17:00 +15°C° 0 mm 1 m/S 761 mmHg 45%
    18:00 +14°C° 0 mm 1 m/S 762 mmHg 49%
    19:00 +12°C° 0 mm 1 m/S 762 mmHg 52%
    20:00 +11°C° 0 mm 1 m/S 762 mmHg 56%
    21:00 +10°C° 0 mm 1 m/S 762 mmHg 57%
    22:00 +10°C° 0 mm 1 m/S 762 mmHg 58%
    23:00 +9°C° 0 mm 1 m/S 762 mmHg 59%

    24 April, Mittwoch

    Zeit Temperatur Niederschläge Wind Luftdruck Luftfeuchtigkeit
    00:00 +9°C° 0 mm 1 m/S 762 mmHg 60%
    01:00 +9°C° 0 mm 1 m/S 762 mmHg 61%
    02:00 +8°C° 0 mm 1 m/S 762 mmHg 62%
    03:00 +8°C° 0 mm 1 m/S 762 mmHg 63%
    04:00 +8°C° 0 mm 1 m/S 763 mmHg 65%
    05:00 +8°C° 0 mm 1 m/S 763 mmHg 67%
    06:00 +9°C° 0 mm 1 m/S 763 mmHg 62%
    07:00 +11°C° 0 mm 1 m/S 763 mmHg 58%
    08:00 +13°C° 0 mm 1 m/S 763 mmHg 54%
    09:00 +14°C° 0 mm 1 m/S 763 mmHg 49%
    10:00 +16°C° 0 mm 1 m/S 763 mmHg 45%
    11:00 +18°C° 0 mm 1 m/S 762 mmHg 41%
    12:00 +19°C° 0 mm 1 m/S 762 mmHg 40%
    13:00 +19°C° 0 mm 1 m/S 762 mmHg 39%
    14:00 +19°C° 0 mm 1 m/S 762 mmHg 38%
    15:00 +19°C° 0 mm 1 m/S 762 mmHg 40%
    16:00 +19°C° 0 mm 1 m/S 761 mmHg 41%
    17:00 +19°C° 0 mm 1 m/S 761 mmHg 43%
    18:00 +16°C° 0 mm 0 m/S 761 mmHg 47%
    19:00 +14°C° 0 mm 0 m/S 761 mmHg 51%
    20:00 +13°C° 0 mm 0 m/S 761 mmHg 55%
    21:00 +12°C° 0 mm 0 m/S 761 mmHg 56%
    22:00 +13°C° 0 mm 1 m/S 762 mmHg 58%
    23:00 +12°C° 0 mm 1 m/S 762 mmHg 59%
    Mehr zeigen